TimeMST,TemperatureF,Dew PointF,Humidity,Sea Level PressureIn,VisibilityMPH,Wind Direction,Wind SpeedMPH,Gust SpeedMPH,PrecipitationIn,Events,Conditions,WindDirDegrees,DateUTC
12:53 AM,36.0,30.9,82,29.81,10.0,NW,3.5,-,N/A,,Overcast,320,2013-11-03 06:53:00
1:53 AM,33.1,30.9,92,29.82,10.0,Calm,Calm,-,N/A,,Partly Cloudy,0,2013-11-03 07:53:00
1:53 AM,35.1,30.0,82,29.83,10.0,NNE,4.6,-,N/A,,Overcast,20,2013-11-03 08:53:00
2:53 AM,34.0,28.9,82,29.83,10.0,NNW,9.2,-,N/A,,Mostly Cloudy,340,2013-11-03 09:53:00
3:53 AM,32.0,28.9,88,29.85,10.0,WSW,3.5,-,N/A,,Mostly Cloudy,240,2013-11-03 10:53:00
4:53 AM,30.9,30.0,96,29.86,10.0,NNW,5.8,-,N/A,,Overcast,330,2013-11-03 11:53:00
5:53 AM,34.0,30.0,85,29.86,10.0,Calm,Calm,-,N/A,,Overcast,0,2013-11-03 12:53:00
6:53 AM,32.0,28.9,88,29.87,10.0,NNE,4.6,-,N/A,,Overcast,20,2013-11-03 13:53:00
7:53 AM,33.1,28.9,85,29.89,10.0,Calm,Calm,-,N/A,,Overcast,0,2013-11-03 14:53:00
8:53 AM,36.0,27.0,70,29.90,10.0,Calm,Calm,-,N/A,,Overcast,0,2013-11-03 15:53:00
9:53 AM,37.9,25.0,60,29.90,10.0,Variable,3.5,-,N/A,,Overcast,0,2013-11-03 16:53:00
10:53 AM,39.9,28.9,65,29.91,10.0,Variable,3.5,-,N/A,,Overcast,0,2013-11-03 17:53:00
11:53 AM,39.0,26.1,60,29.91,10.0,WNW,3.5,-,N/A,,Overcast,290,2013-11-03 18:53:00
12:53 PM,41.0,26.1,55,29.91,10.0,Calm,Calm,-,N/A,,Overcast,0,2013-11-03 19:53:00
1:53 PM,41.0,23.0,49,29.91,10.0,West,16.1,-,N/A,,Overcast,270,2013-11-03 20:53:00
2:53 PM,41.0,24.1,51,29.92,10.0,WNW,9.2,-,N/A,,Overcast,290,2013-11-03 21:53:00
3:53 PM,39.9,24.1,53,29.95,10.0,West,8.1,-,N/A,,Overcast,280,2013-11-03 22:53:00
4:53 PM,37.9,27.0,65,29.96,10.0,North,4.6,-,N/A,,Overcast,360,2013-11-03 23:53:00
5:53 PM,36.0,28.0,73,29.97,10.0,ESE,4.6,-,N/A,,Overcast,110,2013-11-04 00:53:00
6:53 PM,37.0,26.1,65,29.98,10.0,Calm,Calm,-,N/A,,Overcast,0,2013-11-04 01:53:00
7:32 PM,33.8,30.2,87,29.94,3.0,NW,20.7,26.5,0.00,Snow,Light Snow,320,2013-11-04 02:32:00
7:34 PM,33.8,30.2,87,29.94,1.5,NW,21.9,28.8,0.00,Snow,Light Snow,320,2013-11-04 02:34:00
7:37 PM,32.0,30.2,93,29.95,1.0,NNW,19.6,28.8,0.00,Snow,Light Snow,330,2013-11-04 02:37:00
7:39 PM,32.0,30.2,93,29.95,0.8,NW,15.0,28.8,0.00,Snow,Light Snow,320,2013-11-04 02:39:00
7:48 PM,32.0,30.2,93,29.95,1.0,NW,12.7,-,0.01,Snow,Light Snow,320,2013-11-04 02:48:00
7:53 PM,32.0,30.0,92,30.03,1.8,NW,10.4,-,0.01,Snow,Light Snow,310,2013-11-04 02:53:00
7:58 PM,32.0,30.2,93,29.95,3.0,NW,8.1,17.3,0.00,Snow,Light Snow,310,2013-11-04 02:58:00
8:18 PM,32.0,28.4,87,29.95,10.0,North,4.6,-,0.00,,Overcast,10,2013-11-04 03:18:00
8:53 PM,32.0,28.9,88,30.02,10.0,ENE,4.6,-,0.00,,Overcast,60,2013-11-04 03:53:00
9:53 PM,30.0,28.0,92,30.04,10.0,Calm,Calm,-,N/A,,Mostly Cloudy,0,2013-11-04 04:53:00
10:53 PM,28.9,28.0,96,30.04,10.0,North,3.5,-,N/A,,Overcast,10,2013-11-04 05:53:00